FW0501 Weather Reports


Display with metric or nautical units.
time (UTC)temp
F
wind
direction
speed
MPH
gust
MPH
rain 1hr
in
rain 24hr
in
rain mn
in
humidity
%
barometer
mb
20200407234651 78 240 5.0 15.0 0.00 0.00 0.00 22 1016.3
20200407234150 79 224 3.0 7.0 0.00 0.00 0.00 21 1016.3
20200407233651 79 223 2.0 7.0 0.00 0.00 0.00 22 1016.2
20200407233151 79 273 1.0 7.0 0.00 0.00 0.00 23 1016.0
20200407232651 78 141 1.0 3.0 0.00 0.00 0.00 24 1016.2
20200407232151 77 207 3.0 7.0 0.00 0.00 0.00 24 1016.3
20200407231651 77 156 5.0 10.0 0.00 0.00 0.00 25 1016.3
20200407231151 76 266 6.0 10.0 0.00 0.00 0.00 25 1016.3
20200407230651 77 217 5.0 12.0 0.00 0.00 0.00 25 1016.2
20200407230151 78 272 4.0 12.0 0.00 0.00 0.00 24 1016.2
20200407225651 78 201 4.0 10.0 0.00 0.00 0.00 23 1016.3
20200407225151 78 266 4.0 10.0 0.00 0.00 0.00 23 1016.4
20200407224651 78 250 5.0 9.0 0.00 0.00 0.00 24 1016.5
20200407224151 77 249 5.0 9.0 0.00 0.00 0.00 26 1016.6
20200407223651 76 228 4.0 9.0 0.00 0.00 0.00 27 1016.6
20200407223151 75 221 3.0 9.0 0.00 0.00 0.00 26 1016.7
20200407222921 75 274 3.0 7.0 0.00 0.00 0.00 26 1016.7
20200407222149 76 297 4.0 8.0 0.00 0.00 0.00 26 1016.7
20200407221649 76 295 4.0 8.0 0.00 0.00 0.00 25 1016.7
20200407221149 76 281 4.0 9.0 0.00 0.00 0.00 24 1016.8
20200407220649 76 267 4.0 9.0 0.00 0.00 0.00 25 1016.8
20200407220149 76 252 3.0 8.0 0.00 0.00 0.00 24 1016.7
20200407215649 77 280 4.0 9.0 0.00 0.00 0.00 24 1016.6
20200407215149 78 255 3.0 9.0 0.00 0.00 0.00 23 1016.7
20200407214646 78 297 4.0 10.0 0.00 0.00 0.00 24 1016.7
20200407214147 78 257 5.0 13.0 0.00 0.00 0.00 23 1016.7
20200407213647 77 269 4.0 13.0 0.00 0.00 0.00 25 1017.1
20200407213147 77 238 2.0 9.0 0.00 0.00 0.00 25 1017.2
20200407212647 77 257 3.0 11.0 0.00 0.00 0.00 25 1017.2
20200407212144 76 285 5.0 12.0 0.00 0.00 0.00 25 1017.2
20200407211643 77 248 4.0 9.0 0.00 0.00 0.00 24 1017.3
20200407211141 77 252 3.0 9.0 0.00 0.00 0.00 24 1017.2
20200407210640 76 298 2.0 9.0 0.00 0.00 0.00 25 1017.2
20200407210140 76 191 1.0 6.0 0.00 0.00 0.00 26 1017.3
20200407205639 75 82 3.0 9.0 0.00 0.00 0.00 27 1017.4
20200407205139 76 312 3.0 9.0 0.00 0.00 0.00 27 1017.5
20200407204638 77 280 2.0 8.0 0.00 0.00 0.00 26 1017.7
20200407204139 76 280 3.0 8.0 0.00 0.00 0.00 26 1017.7
20200407203637 75 284 3.0 8.0 0.00 0.00 0.00 26 1018.1
20200407203136 75 265 4.0 8.0 0.00 0.00 0.00 27 1017.9
20200407202637 74 304 4.0 10.0 0.00 0.00 0.00 28 1018.1
20200407202136 74 65 4.0 10.0 0.00 0.00 0.00 27 1018.3
20200407201636 74 285 6.0 11.0 0.00 0.00 0.00 27 1018.4
20200407201228 74 338 5.0 11.0 0.00 0.00 0.00 27 1018.5
20200407200637 75 38 4.0 10.0 0.00 0.00 0.00 28 1018.4
20200407200137 76 300 4.0 10.0 0.00 0.00 0.00 27 1018.6
20200407195636 75 294 3.0 10.0 0.00 0.00 0.00 28 1018.6
20200407195136 76 256 5.0 12.0 0.00 0.00 0.00 26 1018.6
20200407194637 77 271 7.0 17.0 0.00 0.00 0.00 26 1018.5
20200407194137 76 158 7.0 17.0 0.00 0.00 0.00 27 1018.5
20200407193636 75 273 6.0 14.0 0.00 0.00 0.00 29 1018.2
20200407193137 75 75 5.0 14.0 0.00 0.00 0.00 27 1018.6
20200407192636 76 117 3.0 14.0 0.00 0.00 0.00 27 1018.8
20200407192137 75 134 3.0 10.0 0.00 0.00 0.00 28 1018.8
20200407191636 75 51 5.0 12.0 0.00 0.00 0.00 27 1018.8
20200407191136 75 112 5.0 12.0 0.00 0.00 0.00 28 1018.9
20200407190637 74 136 4.0 11.0 0.00 0.00 0.00 30 1018.9
20200407190137 74 58 4.0 11.0 0.00 0.00 0.00 30 1019.1
20200407185636 74 146 6.0 14.0 0.00 0.00 0.00 29 1019.4
20200407185137 74 184 6.0 14.0 0.00 0.00 0.00 30 1019.3
20200407184637 74 122 5.0 13.0 0.00 0.00 0.00 30 1019.4
20200407184136 72 181 4.0 13.0 0.00 0.00 0.00 32 1019.4
20200407183637 73 143 4.0 10.0 0.00 0.00 0.00 31 1019.5
20200407183137 72 110 5.0 10.0 0.00 0.00 0.00 32 1019.5
20200407182636 73 121 6.0 12.0 0.00 0.00 0.00 32 1019.7
20200407182136 73 144 7.0 13.0 0.00 0.00 0.00 31 1019.7
20200407181636 72 134 7.0 13.0 0.00 0.00 0.00 32 1019.7
20200407181138 72 135 6.0 13.0 0.00 0.00 0.00 32 1019.8
20200407180634 71 209 6.0 14.0 0.00 0.00 0.00 33 1019.8
20200407180134 71 105 6.0 14.0 0.00 0.00 0.00 32 1020.0
20200407175636 71 85 6.0 15.0 0.00 0.00 0.00 32 1020.1
20200407175141 71 107 6.0 15.0 0.00 0.00 0.00 30 1020.1
20200407174635 71 162 6.0 13.0 0.00 0.00 0.00 32 1020.1
20200407174135 71 162 5.0 13.0 0.00 0.00 0.00 29 1020.1
20200407173632 69 105 5.0 11.0 0.00 0.00 0.00 33 1020.2
20200407173132 69 105 5.0 11.0 0.00 0.00 0.00 32 1020.3
20200407172632 69 82 5.0 11.0 0.00 0.00 0.00 35 1020.4
20200407172132 69 115 5.0 11.0 0.00 0.00 0.00 33 1020.6
20200407171632 68 150 5.0 10.0 0.00 0.00 0.00 35 1020.6
20200407171132 68 145 6.0 10.0 0.00 0.00 0.00 37 1020.6
20200407170633 67 155 5.0 10.0 0.00 0.00 0.00 39 1020.5
20200407170132 68 114 5.0 10.0 0.00 0.00 0.00 38 1020.6
20200407165632 67 149 5.0 10.0 0.00 0.00 0.00 38 1020.7
20200407165132 67 129 5.0 9.0 0.00 0.00 0.00 40 1020.7
20200407164632 66 181 5.0 10.0 0.00 0.00 0.00 40 1020.6
20200407164132 65 115 5.0 10.0 0.00 0.00 0.00 41 1020.6
20200407163629 66 103 4.0 9.0 0.00 0.00 0.00 38 1020.7
20200407163129 65 195 3.0 8.0 0.00 0.00 0.00 37 1020.6
20200407162628 65 153 2.0 8.0 0.00 0.00 0.00 37 1020.6
20200407162128 65 103 1.0 3.0 0.00 0.00 0.00 36 1020.6
20200407161628 64 338 2.0 5.0 0.00 0.00 0.00 38 1020.6
20200407161128 63 85 1.0 5.0 0.00 0.00 0.00 39 1020.6
20200407160628 63 95 1.0 4.0 0.00 0.00 0.00 39 1020.6
20200407160126 63 233 1.0 4.0 0.00 0.00 0.00 39 1020.6
20200407155626 62 141 1.0 4.0 0.00 0.00 0.00 41 1020.7
20200407155126 61 116 2.0 5.0 0.00 0.00 0.00 42 1020.7
20200407154627 60 84 3.0 5.0 0.00 0.00 0.00 42 1020.6
20200407154126 59 153 3.0 6.0 0.00 0.00 0.00 43 1020.5
20200407153626 59 114 3.0 6.0 0.00 0.00 0.00 43 1020.6
20200407153127 59 116 3.0 4.0 0.00 0.00 0.00 43 1020.8
20200407152626 58 143 3.0 6.0 0.00 0.00 0.00 44 1020.7
20200407152215 57 147 3.0 6.0 0.00 0.00 0.00 45 1021.1
20200407151625 57 105 3.0 5.0 0.00 0.00 0.00 46 1021.3
20200407151124 56 139 3.0 6.0 0.00 0.00 0.00 47 1021.3
20200407150624 55 117 3.0 6.0 0.00 0.00 0.00 48 1021.1
20200407150125 55 117 2.0 4.0 0.00 0.00 0.00 47 1021.3
20200407145625 55 148 2.0 4.0 0.00 0.00 0.00 47 1021.1
20200407145125 55 144 2.0 4.0 0.00 0.00 0.00 48 1021.1
20200407144625 54 134 1.0 4.0 0.00 0.00 0.00 49 1021.2
20200407144125 53 126 2.0 4.0 0.00 0.00 0.00 50 1021.0
20200407143623 52 146 2.0 4.0 0.00 0.00 0.00 51 1020.7
20200407143124 52 150 2.0 3.0 0.00 0.00 0.00 51 1020.7
20200407142624 51 146 2.0 3.0 0.00 0.00 0.00 53 1021.0
20200407142129 50 94 2.0 3.0 0.00 0.00 0.00 54 1020.6
20200407141624 49 66 1.0 3.0 0.00 0.00 0.00 54 1020.7
20200407141124 49 85 1.0 3.0 0.00 0.00 0.00 54 1020.6
20200407140624 49 80 2.0 3.0 0.00 0.00 0.00 53 1020.4
20200407140124 50 74 1.0 3.0 0.00 0.00 0.00 53 1020.1
20200407135624 51 104 0.0 2.0 0.00 0.00 0.00 53 1020.1
20200407135124 51 120 0.0 1.0 0.00 0.00 0.00 53 1020.0
20200407134622 50 224 0.0 1.0 0.00 0.00 0.00 54 1020.1
20200407134121 48 224 1.0 2.0 0.00 0.00 0.00 56 1019.8
20200407133623 48 224 1.0 2.0 0.00 0.00 0.00 56 1019.7
20200407133122 47 233 1.0 2.0 0.00 0.00 0.00 57 1019.6
20200407132621 47 224 0.0 2.0 0.00 0.00 0.00 58 1019.6
20200407132122 46 236 0.0 1.0 0.00 0.00 0.00 59 1019.4
20200407131620 46 228 0.0 0.0 0.00 0.00 0.00 58 1019.3
20200407131120 46 228 0.0 1.0 0.00 0.00 0.00 58 1019.2
20200407130620 46 228 0.0 2.0 0.00 0.00 0.00 58 1019.1
20200407130119 46 239 0.0 2.0 0.00 0.00 0.00 58 1018.9
20200407125621 46 236 0.0 0.0 0.00 0.00 0.00 57 1018.9
20200407125120 46 239 0.0 0.0 0.00 0.00 0.00 58 1018.9
20200407124619 46 238 0.0 0.0 0.00 0.00 0.00 58 1018.8
20200407124120 46 238 0.0 0.0 0.00 0.00 0.00 58 1018.7
20200407123620 46 238 0.0 0.0 0.00 0.00 0.00 57 1018.7
20200407123120 46 239 0.0 1.0 0.00 0.00 0.00 56 1018.7
20200407122619 47 240 0.0 2.0 0.00 0.00 0.00 55 1018.8
20200407122120 47 240 1.0 2.0 0.00 0.00 0.00 56 1018.7
20200407121622 47 231 0.0 1.0 0.00 0.00 0.00 55 1018.7
20200407121121 47 234 0.0 1.0 0.00 0.00 0.00 55 1018.7
20200407120619 47 264 0.0 1.0 0.00 0.00 0.00 55 1018.7
20200407120120 47 264 0.0 1.0 0.00 0.00 0.00 54 1018.6
20200407115619 47 268 0.0 1.0 0.00 0.00 0.00 54 1018.7
20200407115120 47 269 0.0 1.0 0.00 0.00 0.00 53 1018.6
20200407114931 48 267 0.0 0.0 0.00 0.00 0.00 52 1018.6
20200407114119 49 269 0.0 0.0 0.00 0.00 0.00 51 1018.5
20200407113620 50 269 0.0 1.0 0.00 0.00 0.00 50 1018.5
20200407113119 50 271 0.0 1.0 0.00 0.00 0.00 49 1018.6
20200407112620 50 315 0.0 2.0 0.00 0.00 0.00 50 1018.6
20200407112119 50 4 0.0 2.0 0.00 0.00 0.00 49 1018.6
20200407111620 51 210 0.0 1.0 0.00 0.00 0.00 48 1018.6
20200407111119 51 210 1.0 2.0 0.00 0.00 0.00 47 1018.6
20200407110619 52 215 1.0 2.0 0.00 0.00 0.00 47 1018.6
20200407110119 52 248 0.0 2.0 0.00 0.00 0.00 46 1018.6
20200407105617 52 248 1.0 4.0 0.00 0.00 0.00 46 1018.7
20200407105118 51 323 1.0 4.0 0.00 0.00 0.00 47 1018.7
20200407104617 51 309 0.0 2.0 0.00 0.00 0.00 48 1018.7
20200407104118 51 245 0.0 2.0 0.00 0.00 0.00 48 1018.7
20200407103615 52 73 1.0 3.0 0.00 0.00 0.00 46 1018.6
20200407103116 53 139 2.0 6.0 0.00 0.00 0.00 44 1018.5
20200407102643 53 208 3.0 6.0 0.00 0.00 0.00 44 1018.6
20200407102115 53 217 2.0 5.0 0.00 0.00 0.00 44 1018.6
20200407101616 53 201 2.0 4.0 0.00 0.00 0.00 44 1018.6
20200407101115 53 167 3.0 5.0 0.00 0.00 0.00 44 1018.6
20200407100613 52 192 3.0 5.0 0.00 0.00 0.00 44 1018.6
20200407100114 52 204 2.0 4.0 0.00 0.00 0.00 44 1018.7
20200407095613 52 195 1.0 3.0 0.00 0.00 0.00 43 1018.7
20200407095114 52 219 0.0 1.0 0.00 0.00 0.00 44 1018.8
20200407094613 51 234 0.0 1.0 0.00 0.00 0.00 44 1018.7
20200407094113 51 233 0.0 1.0 0.00 0.00 0.00 44 1018.8
20200407093613 51 221 1.0 3.0 0.00 0.00 0.00 43 1018.8
20200407093112 52 224 2.0 4.0 0.00 0.00 0.00 43 1018.9
20200407092611 51 248 1.0 4.0 0.00 0.00 0.00 43 1018.9
20200407091112 51 237 0.0 1.0 0.00 0.00 0.00 43 1019.2
20200407090611 51 238 0.0 1.0 0.00 0.00 0.00 43 1019.2
20200407090111 51 237 0.0 1.0 0.00 0.00 0.00 43 1019.1
20200407085611 51 244 0.0 1.0 0.00 0.00 0.00 43 1019.2
20200407085111 51 245 0.0 1.0 0.00 0.00 0.00 44 1019.2
20200407084611 51 220 0.0 2.0 0.00 0.00 0.00 44 1019.2
20200407084111 52 219 1.0 2.0 0.00 0.00 0.00 44 1019.3
20200407083610 52 101 1.0 2.0 0.00 0.00 0.00 42 1019.2
20200407083109 53 86 0.0 2.0 0.00 0.00 0.00 41 1019.2
20200407082608 54 210 0.0 1.0 0.00 0.00 0.00 40 1019.2
20200407082109 54 210 0.0 1.0 0.00 0.00 0.00 39 1019.2
20200407081609 54 210 0.0 3.0 0.00 0.00 0.00 40 1019.3
20200407081108 54 243 0.0 3.0 0.00 0.00 0.00 39 1019.2
20200407080609 55 63 0.0 2.0 0.00 0.00 0.00 38 1019.1
20200407080109 55 184 0.0 2.0 0.00 0.00 0.00 38 1019.2
20200407075609 55 147 1.0 3.0 0.00 0.00 0.00 39 1019.2
20200407075111 55 255 1.0 3.0 0.00 0.00 0.00 38 1019.1
20200407074607 54 312 1.0 4.0 0.00 0.00 0.00 39 1018.9
20200407074106 54 241 1.0 4.0 0.00 0.00 0.00 39 1019.1
20200407073607 54 232 0.0 2.0 0.00 0.00 0.00 38 1019.1
20200407073107 54 245 0.0 1.0 0.00 0.00 0.00 38 1019.1
20200407072607 55 243 0.0 1.0 0.00 0.00 0.00 38 1019.1
20200407072107 55 298 0.0 2.0 0.00 0.00 0.00 37 1019.3
20200407071608 55 309 0.0 2.0 0.00 0.00 0.00 37 1019.3
20200407071107 56 233 0.0 1.0 0.00 0.00 0.00 37 1019.2
20200407070607 56 232 1.0 3.0 0.00 0.00 0.00 37 1019.3
20200407070104 56 249 1.0 3.0 0.00 0.00 0.00 36 1019.3
20200407065602 56 358 1.0 3.0 0.00 0.00 0.00 36 1019.4
20200407065102 56 314 0.0 3.0 0.00 0.00 0.00 37 1019.3
20200407064602 56 37 0.0 0.0 0.00 0.00 0.00 36 1019.3
20200407064103 56 302 0.0 2.0 0.00 0.00 0.00 36 1019.3
20200407063602 56 302 1.0 3.0 0.00 0.00 0.00 35 1019.1
20200407063100 57 349 1.0 3.0 0.00 0.00 0.00 35 1019.2
20200407062600 57 252 1.0 3.0 0.00 0.00 0.00 35 1019.2
20200407062100 56 236 0.0 3.0 0.00 0.00 0.00 35 1019.2
20200407061600 56 194 0.0 2.0 0.00 0.00 0.00 35 1019.2
20200407061100 56 242 1.0 3.0 0.00 0.00 0.00 35 1019.2
20200407060603 56 41 0.0 3.0 0.00 0.00 0.00 34 1019.1
20200407060059 57 134 0.0 0.0 0.00 0.00 0.00 34 1019.1
20200407055600 57 135 0.0 1.0 0.00 0.00 0.00 34 1019.1
20200407055100 57 135 0.0 1.0 0.00 0.00 0.00 34 1018.9
20200407054600 57 137 0.0 1.0 0.00 0.00 0.00 33 1018.8
20200407054058 57 138 0.0 1.0 0.00 0.00 0.00 33 1018.8
20200407053558 57 137 1.0 4.0 0.00 0.00 0.00 32 1018.8
20200407053058 58 85 1.0 4.0 0.00 0.00 0.00 31 1018.8
20200407052558 60 84 0.0 4.0 0.00 0.00 0.00 31 1018.6
20200407052058 61 282 1.0 4.0 0.00 0.00 0.00 29 1018.6
20200407051555 61 259 2.0 5.0 0.00 0.00 0.00 29 1018.6
20200407051056 61 235 1.0 5.0 0.00 0.00 0.00 29 1018.5
20200407050556 60 250 1.0 4.0 0.00 0.00 0.00 29 1018.6
20200407050055 59 245 1.0 4.0 0.00 0.00 0.00 30 1018.7
20200407045554 59 258 1.0 3.0 0.00 0.00 0.00 30 1018.7
20200407045054 59 220 0.0 1.0 0.00 0.00 0.00 29 1018.5
20200407044554 60 220 1.0 3.0 0.00 0.00 0.00 29 1018.5
20200407044054 59 231 1.0 3.0 0.00 0.00 0.00 29 1018.5
20200407043554 59 235 0.0 2.0 0.00 0.00 0.00 30 1018.3
20200407043053 60 207 0.0 1.0 0.00 0.00 0.00 29 1018.3
20200407042553 60 207 0.0 1.0 0.00 0.00 0.00 30 1018.3
20200407042052 60 103 0.0 1.0 0.00 0.00 0.00 29 1018.3
20200407041549 60 103 0.0 2.0 0.00 0.00 0.00 29 1018.1
20200407041048 61 118 1.0 2.0 0.00 0.00 0.00 28 1018.2
20200407040548 61 156 1.0 2.0 0.00 0.00 0.00 28 1017.9
20200407040046 61 210 0.0 1.0 0.00 0.00 0.00 27 1017.9
20200407035545 62 54 0.0 0.0 0.00 0.00 0.00 28 1017.8
20200407035043 62 54 0.0 0.0 0.00 0.00 0.00 28 1017.8
20200407034542 63 54 0.0 0.0 0.00 0.00 0.00 28 1017.8
20200407034042 63 54 0.0 2.0 0.00 0.00 0.00 27 1017.7
20200407033540 64 55 0.0 2.0 0.00 0.00 0.00 26 1017.6
20200407033039 65 266 0.0 2.0 0.00 0.00 0.00 24 1017.4
20200407032537 65 262 2.0 6.0 0.00 0.00 0.00 24 1017.4
20200407032035 66 250 3.0 6.0 0.00 0.00 0.00 23 1017.4
20200407031536 66 239 4.0 6.0 0.00 0.00 0.00 23 1017.3
20200407031036 66 248 4.0 12.0 0.00 0.00 0.00 23 1017.3
20200407030535 67 229 5.0 12.0 0.00 0.00 0.00 23 1017.1
20200407030036 67 239 5.0 12.0 0.00 0.00 0.00 23 1016.9
20200407025535 67 253 5.0 9.0 0.00 0.00 0.00 24 1016.9
20200407025036 67 234 6.0 12.0 0.00 0.00 0.00 24 1016.7
20200407024535 67 238 6.0 12.0 0.00 0.00 0.00 24 1016.7
20200407024036 67 245 6.0 11.0 0.00 0.00 0.00 23 1016.6
20200407023536 67 231 5.0 9.0 0.00 0.00 0.00 24 1016.5
20200407023036 67 262 5.0 9.0 0.00 0.00 0.00 24 1016.6
20200407022536 67 259 5.0 10.0 0.00 0.00 0.00 23 1016.5
20200407022035 67 241 5.0 10.0 0.00 0.00 0.00 23 1016.5
20200407021536 68 229 5.0 10.0 0.00 0.00 0.00 23 1016.3
20200407021036 68 259 5.0 10.0 0.00 0.00 0.00 22 1016.0
20200407020536 69 255 5.0 10.0 0.00 0.00 0.00 22 1015.8
20200407020035 69 238 7.0 13.0 0.00 0.00 0.00 21 1015.8
20200407015536 69 256 7.0 13.0 0.00 0.00 0.00 21 1015.8
20200407015035 70 262 7.0 15.0 0.00 0.00 0.00 21 1015.8
20200407014535 70 255 8.0 15.0 0.00 0.00 0.00 20 1015.8
20200407014036 70 275 8.0 15.0 0.00 0.00 0.00 20 1015.8
20200407013535 71 264 7.0 13.0 0.00 0.00 0.00 20 1015.6
20200407013036 71 240 8.0 15.0 0.00 0.00 0.00 19 1015.7
20200407012535 71 257 8.0 15.0 0.00 0.00 0.00 19 1015.5
20200407012036 71 248 6.0 12.0 0.00 0.00 0.00 19 1015.4
20200407011535 72 268 6.0 11.0 0.00 0.00 0.00 19 1015.4
20200407011034 72 251 7.0 15.0 0.00 0.00 0.00 19 1015.4
20200407010535 72 248 7.0 15.0 0.00 0.00 0.00 18 1015.3
20200407010036 73 262 6.0 13.0 0.00 0.00 0.00 18 1015.3
20200407005536 73 285 6.0 11.0 0.00 0.00 0.00 17 1015.2
20200407005035 73 251 5.0 10.0 0.00 0.00 0.00 17 1014.8
20200407004533 74 258 4.0 8.0 0.00 0.00 0.00 17 1014.8
20200407004033 74 275 4.0 8.0 0.00 0.00 0.00 16 1014.8
20200407003533 74 236 4.0 7.0 0.00 0.00 0.00 16 1014.7
20200407003033 74 256 5.0 9.0 0.00 0.00 0.00 16 1014.8
20200407002533 75 269 5.0 11.0 0.00 0.00 0.00 16 1014.7
20200407002033 75 249 5.0 12.0 0.00 0.00 0.00 16 1014.7
20200407001533 75 263 6.0 12.0 0.00 0.00 0.00 16 1014.8
20200407001031 76 232 5.0 12.0 0.00 0.00 0.00 16 1014.8
20200407000531 76 245 5.0 11.0 0.00 0.00 0.00 16 1014.8
20200407000032 75 252 5.0 10.0 0.00 0.00 0.00 15 1014.8
20200406235531 75 257 5.0 10.0 0.00 0.00 0.00 15 1014.8
20200406235031 75 263 6.0 11.0 0.00 0.00 0.00 14 1014.8